www.pogodaiklimat.ru

Погода и климат >> Архив погоды >> Марокко >> Сафи


ПОГОДА в Сафи

  • Прогноз погоды в Сафи
  • Монитор погоды в Сафи

АРХИВ ПОГОДЫ в Сафи

Время (UTC), дата Ветер
(напр.,м/с)
 
Видим.   Явления Облачность Т
(С)
Тd
(С)
f
(%)
Тe
(С)
Тes
(С)
Комфортность P
(гПа)
Po
(гПа)
Тmin
(С)
Tmax
(С)
R
(мм)
R24
(мм)
S
(см)
15 15.09 СЗ 4-5
{7}
20 км ясно +25.5 +17.5 61 +30 +38 душно 1018.0 1012.8
18 15.09 С 3-6
{7}
20 км ясно +25.9 +16.5 56 +29 +30 душно 1017.8 1012.7 +26.6
06 16.09 В 3
{8}
10 км н/о +18.9 +17.2 90 +20 +20 1017.7 1012.5 +18.7
09 16.09 В 3-7
{7}
20 км ясно +23.6 +17.1 67 +27 +32 жарко 1018.0 1012.8
12 16.09 С 4-6
{8}
20 км 4/0
[Ci sp]
+27.0 +17.3 55 +31 +42 душно 1017.8 1012.7
15 16.09 СВ 4-9
{9}
20 км 6/0
[Ci sp]
+28.8 +18.3 53 +34 +40 очень
душно
1016.4 1011.3
18 16.09 СВ 3-6
{9}
20 км 9/6 480 м
[Sc Ci sp]
+24.9 +16.6 60 +28 +29 жарко 1016.6 1011.4 +30.0
06 17.09 В 2
{6}
10 км н/о +19.6 +17.9 90 +23 +23 комфорт 1015.5 1010.3 +19.5
09 17.09 СВ 2-6
{6}
20 км 4/4 480 м
[Sc]
+22.7 +18.4 77 +28 +32 душно 1016.6 1011.4
12 17.09 С 5-7
{7}
20 км 5/0
[Ci sp]
+24.4 +18.5 70 +29 +37 душно 1016.1 1010.9
15 17.09 С 2-7
{8}
20 км 5/0
[Ci sp]
+26.4 +18.7 63 +31 +41 душно 1015.3 1010.2
18 17.09 СВ 4-8
{8}
20 км 5/0
[Ci sp]
+24.4 +17.3 65 +28 +29 душно 1015.4 1010.2 +27.1
06 18.09 В 2
{6}
10 км н/о +20.1 +16.4 79 +24 +24 комфорт 1016.0 1010.8 +18.3
09 18.09 В 3-5
{7}
20 км 4/3 480 м
[Sc Ci sp]
+22.8 +15.8 65 +27 +30 душно 1017.9 1012.7
12 18.09 СЗ 3-6
{7}
20 км 4/3 480 м
[Sc Ci sp]
+25.8 +15.4 53 +29 +37 душно 1017.3 1012.2
15 18.09 СВ 4-9
{10}
20 км 1/1 480 м
[Sc Ci sp]
+27.1 +14.8 47 +30 +36 душно 1015.9 1010.8
18 18.09 СВ 4-8
{10}
20 км 3/1 480 м
[Sc Ci sp]
+24.1 +16.0 61 +27 +28 жарко 1016.2 1011.1 +28.6
06 19.09 В 2
{7}
10 км н/о +18.8 +15.7 82 +21 +21 комфорт 1016.5 1011.3 +18.7
09 19.09 В 4-7
{8}
20 км 3/0
[Ci sp]
+23.0 +16.0 65 +27 +31 душно 1016.8 1011.6
12 19.09 СВ 2-5
{8}
20 км 1/0
[Ci sp]
+28.9 +14.5 41 +31 +46 жарко 1015.6 1010.5
15 19.09 С 6-10
{10}
20 км 3/0
[Ci sp]
+27.1 +16.1 51 +30 +35 душно 1014.6 1009.5
18 19.09 СВ 3-8
{10}
20 км 3/0
[Ci sp]
+24.4 +15.8 59 +28 +28 душно 1015.0 1009.8 +28.6
06 20.09 В 2
{6}
10 км н/о +18.7 +16.5 87 +20 +20 1015.3 1010.1 +18.5
09 20.09 СВ 3-5
{5}
20 км 5/1 480 м
[Sc Ci sp]
+22.4 +16.8 71 +27 +30 душно 1016.2 1011.0
12 20.09 СЗ 3-6
{6}
20 км 8/0
[Ci sp]
+24.2 +16.7 63 +28 +39 душно 1015.7 1010.5
15 20.09 С 4-6
{6}
20 км 8/0
[Ac trans Ci sp]
+24.2 +15.6 59 +27 +32 жарко 1014.9 1009.7
18 20.09 СЗ 3-4
{4}
20 км 5/0
[Ac trans]
+22.9 +17.4 71 +28 +28 душно 1015.2 1010.0 +25.1
06 21.09 ЮВ 2
{4}
10 км н/о +16.6 +14.5 87 +17 +17 1014.9 1009.7 +16.6
09 21.09 СЗ 2-2
{2}
20 км 4/0
[Ci sp]
+22.5 +16.9 71 +27 +32 душно 1016.4 1011.2
12 21.09 СЗ 3-5
{5}
20 км 4/0
[Ci sp]
+23.2 +17.0 68 +28 +41 душно 1016.3 1011.1
15 21.09 СЗ 4-4
{5}
20 км 3/0
[Ci sp]
+23.5 +17.5 69 +27 +34 душно 1015.8 1010.6
18 21.09 СЗ 2-3
{4}
20 км 3/0
[Ci sp]
+22.5 +19.2 82 +28 +29 душно 1016.1 1010.9 +24.1
06 22.09 ЮВ 2
{3}
10 км н/о +17.9 +16.5 92 +19 +19 1017.3 1012.1 +17.8
09 22.09 СЗ 2-3
{3}
20 км 3/3 480 м
[Sc]
+23.4 +18.3 73 +29 +33 душно 1018.7 1013.5
12 22.09 СЗ 3-5
{5}
20 км 1/1 480 м
[Sc]
+24.3 +18.1 68 +29 +41 душно 1017.9 1012.7

 

Местоположение метеостанции Сафи (Марокко): широта 32.28 долгота -9.23 высота над уровнем моря 52 м.

В архиве по умолчанию представлена погода в Сафи за последнюю неделю. Архивные данные за месяц целиком и за предыдущие месяцы, начиная с января 2011 года, Вы можете получить, выбрав интересующий диапазон дат из раскрывающегося списка и нажав кнопку "Ввод!".


*Определитесь, кто Вы:
робот инопланетянин человек

Внимание! Время в таблицах - всемирное. Для получения местного времени необходимо прибавить поправку, которая равна 0 ч.

Смотрите также архив погоды в соседних городах и на ближайших метеорологических станциях:

Погода в Эс-Сувейре (Марокко) (99 км)
Погода в Аэропорту Эс-Сувейра-Могадор (Марокко) (107 км)
Погода в Марракеше (Марокко) (135 км)
Погода в Сеттате (Марокко) (168 км)
Погода в Нуасере (Марокко) (196 км)
Погода в Таруданте (Марокко) (202 км)
Погода в Касабланке (Марокко) (204 км)
Погода в Агадире (Марокко) (214 км)
Погода в Агадире (Марокко) (219 км)
Погода в Хурибге (Марокко) (222 км)

Пояснения к столбцам:

Ветер - указаны скорость ветра в м/с - средняя за 10 мин, порывы в срок и между сроками (в фигурных скобках) и направление, откуда дует ветер: С - северный, СВ - северо-восточный, В - восточный, ЮВ - юго-восточный, Ю - южный, ЮЗ - юго-западный, З - западный, СЗ - северо-западный.
Видимость - горизонтальная дальность видимости в метрах или километрах. При видимости от 1 до 10 км при отсутствии осадков обычно наблюдается дымка, при ухудшении видимости до 1 км и менее - туман. В сухую погоду видимость может ухудшаться дымом, пылью или мглою.
Явления - указаны атмосферные явления, наблюдавшиеся в срок или в последний час перед сроком; фигурными скобками обозначены явления, наблюдавшиеся между сроками (за 1-3 часа до срока); квадратными скобками обозначены град или гололедные отложения с указанием их диаметра в мм.
Облачность - указаны через наклонную черту общая и нижняя облачность в баллах и высота нижней границы облаков в метрах; квадратными скобками обозначены формы облаков: Ci - перистые, Cs - перисто-слоистые, Cc - перисто-кучевые, Ac - высококучевые, As - высокослоистые, Sc - слоисто-кучевые, Ns - слоисто-дождевые, Cu - кучевые, Cb - кучево-дождевые. Подробнее классификацию облаков см. в Атласе облаков (PDF).
T - Температура воздуха - температура, измеренная на высоте 2 м над землей.
Td - Температура точки росы - температура, при понижении до которой содержащийся в воздухе водяной пар достигнет насыщения.
f - Относительная влажность воздуха - влажноcть воздуха, измеренная на высоте 2 м над землей.
Te - Эффективная температура - температура, которую ощущает одетый по сезону человек в тени. Характеристика душности погоды. При расчете учитывается влияние влажности воздуха и скорости ветра на теплоощущения человека.
Tes - Эффективная температура на солнце - температура, которую ощущает человек, с поправкой на солнечный нагрев. Характеристика знойности погоды. Зависит от высоты солнца над горизонтом, облачности и скорости ветра. Ночью, в пасмурную погоду, а также при ветре 12 м/с и более поправка равна нулю.
P - Атмосферное давление - приведенное к уровню моря атмосферное давление.
Po - Атмосферное давление - измеренное на уровне метеостанции атмосферное давление.
Tmin - Минимальная температура - минимум температуры воздуха на высоте 2 м над землей.
Tmax - Максимальная температура - максимум температуры воздуха на высоте 2 м над землей.
R - Количество осадков - Количество выпавших осадков за период времени, мм. При наведении курсора мыши на число - период времени, за который выпало указанное количество осадков.
R24 - Количество осадков - Количество выпавших осадков за 24 часа, мм.
S - Снежный покров - Высота снежного покрова, см. При наведении курсора мыши на число - состояние снежного покрова и степень покрытия местности в баллах.